Terug naar catalogus

BREEZE-M DEB

LostHEO
NORAD 38586·DEBRIS·🇷🇺 Russia

Gelanceerd Mar 14, 2008 vanaf Baikonur Cosmodrome

Loading…

Volgende Passages (komende 24 uur)

TLE

VerouderdSource: Space-Track

Epoch: Feb 28, 2026, 04:25 UTC

1 38586U 08011AH  26059.18419435 -.00000048  00000-0  00000-0 0  9990
2 38586  49.7007 352.4808 6257844 246.6809  38.2022  2.91964199158696

Volg BREEZE-M DEB in realtime met AllMySat

Download on the App Store